Location: Chagrin Falls Park
(41.4139°N, 81.3865°W)
Time: 03:02:52
(UTC+00:00)

STARLINK-2732 - Visible Passes

Search period start: 30 November 2021 00:00
Search period end: 10 December 2021 00:00
Orbit: 545 x 549 km, 53.1° (Epoch: 29 November)

Date Brightness Start Highest point End Pass type
(mag) Time Alt. Az. Time Alt. Az. Time Alt. Az.
30 Nov 6.3 00:51:12 10° WNW 00:52:17 15° NW 00:52:17 15° NW visible
30 Nov 4.4 23:03:48 10° WSW 23:07:45 45° NNW 23:10:43 17° NE visible
01 Dec 6.3 00:45:13 10° NW 00:46:19 14° NW 00:46:19 14° NW visible
01 Dec 4.7 22:57:41 10° W 23:01:31 36° NNW 23:04:42 14° NE visible
02 Dec 6.3 00:39:14 10° NW 00:40:18 14° NW 00:40:18 14° NW visible
02 Dec 5.0 22:51:38 10° W 22:55:18 30° NNW 22:58:40 12° NE visible
03 Dec 6.2 00:33:12 10° NW 00:34:16 14° NNW 00:34:16 14° NNW visible
03 Dec 5.2 22:45:36 10° W 22:49:05 26° NNW 22:52:36 10° NE visible
04 Dec 6.2 00:27:06 10° NW 00:28:12 14° NNW 00:28:12 14° NNW visible
04 Dec 5.3 22:39:35 10° WNW 22:42:54 23° NNW 22:46:13 10° NE visible
05 Dec 6.1 00:20:58 10° NW 00:22:07 14° NNW 00:22:07 14° NNW visible
05 Dec 5.4 22:33:36 10° WNW 22:36:44 20° NNW 22:39:52 10° NE visible
06 Dec 6.0 00:14:46 10° NW 00:16:02 14° NNW 00:16:02 14° NNW visible
06 Dec 5.5 22:27:36 10° WNW 22:30:34 19° NNW 22:33:31 10° NNE visible
07 Dec 5.9 00:08:30 10° NW 00:09:58 15° NNW 00:09:58 15° NNW visible
07 Dec 5.6 22:21:36 10° NW 22:24:24 17° N 22:27:13 10° NE visible
08 Dec 5.7 00:02:11 10° NNW 00:03:55 17° N 00:03:55 17° N visible
08 Dec 5.5 23:55:50 10° NW 23:57:54 19° N 23:57:54 19° N visible
09 Dec 5.3 23:49:27 10° NW 23:51:56 22° N 23:51:56 22° N visible
